This is the latest recevied weather packets stored in our database for station/object KG4LKY-5. If no packets are shown the sender has not sent any weather packets the latest 10 day(s).
| Time | Temp. | Humidity | Pressure | Rain* | Wind** | Luminosity | Snow |
|---|---|---|---|---|---|---|---|
| 1777762365 | 13.33° C | 44% | 1016.6 hPa | 0 mm | - | - | - |
| 1777762065 | 12.22° C | 46% | 1016.8 hPa | 0 mm | - | - | - |
| 1777761765 | 12.22° C | 46% | 1016.8 hPa | 0 mm | - | - | - |
| 1777761464 | 12.22° C | 48% | 1016.8 hPa | 0 mm | - | - | - |
| 1777761164 | 11.67° C | 45% | 1016.7 hPa | 0 mm | - | - | - |
| 1777760864 | 12.22° C | 47% | 1016.8 hPa | 0 mm | - | - | - |
| 1777760564 | 11.67° C | 45% | 1016.7 hPa | 0 mm | - | - | - |
| 1777760263 | 11.67° C | 47% | 1016.7 hPa | 0 mm | - | - | - |
| 1777759963 | 12.22° C | 48% | 1016.6 hPa | 0 mm | - | - | - |
| 1777759663 | 11.67° C | 46% | 1016.6 hPa | 0 mm | - | - | - |
| 1777759364 | 12.22° C | 44% | 1016.6 hPa | 0 mm | - | - | - |
| 1777758760 | 12.22° C | 44% | 1016.5 hPa | 0 mm | - | - | - |
| 1777758460 | 11.67° C | 45% | 1016.4 hPa | 0 mm | - | - | - |
| 1777758160 | 11.67° C | 42% | 1016.3 hPa | 0 mm | - | - | - |
| 1777757559 | 12.22° C | 46% | 1016.3 hPa | 0 mm | - | - | - |
| 1777757259 | 11.67° C | 41% | 1016.2 hPa | 0 mm | - | - | - |
| 1777756959 | 12.78° C | 43% | 1016.2 hPa | 0 mm | - | - | - |
| 1777756658 | 12.22° C | 41% | 1016.2 hPa | 0 mm | - | - | - |
| 1777756358 | 13.33° C | 40% | 1016.1 hPa | 0 mm | - | - | - |
| 1777755757 | 13.33° C | 37% | 1016.1 hPa | 0 mm | - | - | - |
| 1777755458 | 13.33° C | 42% | 1016.1 hPa | 0 mm | - | - | - |
| 1777755157 | 13.33° C | 39% | 1016.1 hPa | 0 mm | - | - | - |
| 1777754556 | 13.33° C | 38% | 1016.1 hPa | 0 mm | - | - | - |
| 1777753956 | 13.33° C | 38% | 1016.1 hPa | 0 mm | - | - | - |
| 1777753655 | 12.78° C | 39% | 1016.2 hPa | 0 mm | - | - | - |
* Rain since midnight (hover to see other rain measurements)
** Current wind speed in m/s (hover to see current wind gust speed)